User: anonymous
Location: Unspecified
(0.0000°N, 0.0000°E)
Time: 11:05:54
(UTC+02:00)
Language:

Symphonie 2 Rocket - Orbit

View from above orbital plane
View from above orbital plane
View from above satellite
View from above satellite

Ground track
Ground track

The orbit data is extracted from the following two-line orbital elements,

1 08133U 75077B   13194.67007704  .04828072 -12599-4  61482-3 0  1606
2 08133 025.2844 194.0832 0008516 250.4042 109.6541 16.34558485958441
Epoch (UTC): 13 July 2013 16:04:54
Eccentricity: 0.0008516
inclination: 25.2844°
perigee height: 175 km
apogee height: 186 km
right ascension of ascending node: 194.0832°
argument of perigee: 250.4042°
revolutions per day: 16.34558485
mean anomaly at epoch: 109.6541°
orbit number at epoch: 95844

The dashed part of the orbit path shows where the satellite is in the earth's shadow,  

DLR